FW0841 Weather Reports


Display with metric or nautical units.
time (UTC)temp
F
wind
direction
speed
MPH
gust
MPH
rain 1hr
in
rain 24hr
in
rain mn
in
humidity
%
barometer
mb
20260505090038 70 111 0.0 3.0 0.00 0.04 0.04 93 1014.5
20260505085518 70 103 0.0 3.0 0.00 0.04 0.04 94 1014.5
20260505085014 70 102 0.0 3.0 0.00 0.04 0.04 94 1014.4
20260505084547 71 104 0.0 2.0 0.00 0.04 0.04 93 1014.4
20260505084014 71 106 0.0 3.0 0.00 0.04 0.04 93 1014.5
20260505083512 71 117 0.0 3.0 0.00 0.04 0.04 93 1014.5
20260505083046 71 96 0.0 2.0 0.00 0.04 0.04 93 1014.4
20260505082514 71 104 0.0 2.0 0.00 0.04 0.04 93 1014.6
20260505082012 71 100 0.0 2.0 0.00 0.04 0.04 94 1014.5
20260505081549 71 89 0.0 3.0 0.00 0.04 0.04 94 1014.5
20260505081015 71 91 1.0 3.0 0.00 0.04 0.04 94 1014.6
20260505080513 71 89 0.0 3.0 0.00 0.04 0.04 94 1014.7
20260505080040 71 84 0.0 3.0 0.00 0.04 0.04 94 1014.6
20260505075516 71 107 0.0 3.0 0.00 0.04 0.04 94 1014.6
20260505075011 71 98 0.0 4.0 0.00 0.04 0.04 94 1014.6
20260505074539 71 78 0.0 3.0 0.00 0.04 0.04 94 1014.6
20260505074014 71 94 0.0 3.0 0.00 0.04 0.04 94 1014.7
20260505073514 71 107 0.0 2.0 0.00 0.04 0.04 95 1014.8
20260505073039 71 90 0.0 3.0 0.00 0.04 0.04 94 1014.9
20260505072512 71 103 0.0 2.0 0.00 0.04 0.04 95 1014.8
20260505072019 71 103 0.0 2.0 0.00 0.04 0.04 95 1014.6
20260505071545 71 98 0.0 2.0 0.00 0.04 0.04 94 1014.6
20260505071015 71 100 0.0 2.0 0.00 0.04 0.04 94 1014.6
20260505070517 71 101 0.0 2.0 0.00 0.04 0.04 95 1014.6
20260505070045 71 97 0.0 2.0 0.00 0.04 0.04 95 1014.5
20260505065517 71 94 0.0 2.0 0.00 0.04 0.04 95 1014.5
20260505065012 71 96 0.0 2.0 0.00 0.04 0.04 95 1014.5
20260505064540 71 84 0.0 2.0 0.00 0.04 0.04 95 1014.5
20260505064017 72 88 0.0 2.0 0.00 0.04 0.04 95 1014.4
20260505063514 71 100 0.0 2.0 0.00 0.04 0.04 95 1014.4
20260505063047 72 92 0.0 2.0 0.00 0.04 0.04 95 1014.4
20260505062515 72 71 0.0 2.0 0.00 0.04 0.04 95 1014.4
20260505062013 72 111 0.0 3.0 0.00 0.04 0.04 95 1014.3
20260505061546 72 106 0.0 2.0 0.00 0.04 0.04 96 1014.2
20260505061013 72 119 0.0 2.0 0.00 0.04 0.04 96 1014.1
20260505060516 72 89 0.0 2.0 0.00 0.04 0.04 96 1014.1
20260505060051 72 93 0.0 2.0 0.00 0.04 0.04 96 1014.1
20260505055513 72 95 0.0 1.0 0.00 0.04 0.04 96 1014.1
20260505055013 72 98 0.0 2.0 0.00 0.04 0.04 96 1014.2
20260505054549 72 94 0.0 3.0 0.00 0.04 0.04 96 1014.1
20260505054017 72 107 0.0 3.0 0.00 0.04 0.04 96 1014.0
20260505053513 72 69 0.0 1.0 0.00 0.04 0.04 96 1014.0
20260505053111 72 78 0.0 1.0 0.00 0.04 0.04 96 1013.9
20260505052516 72 78 0.0 1.0 0.00 0.04 0.04 96 1013.9
20260505052016 72 78 0.0 1.0 0.00 0.04 0.04 96 1013.9
20260505051538 72 83 0.0 1.0 0.00 0.04 0.04 96 1013.9
20260505051014 72 83 0.0 1.0 0.00 0.04 0.04 96 1013.9
20260505050516 73 83 0.0 1.0 0.00 0.04 0.04 96 1013.9
20260505041550 74 317 0.0 1.0 0.00 0.04 0.04 94 1013.8
20260505041016 74 317 0.0 1.0 0.00 0.04 0.04 94 1013.7
20260505040514 74 317 0.0 1.0 0.00 0.04 0.04 94 1013.7
20260505040051 74 317 0.0 3.0 0.00 0.04 0.04 93 1013.7
20260505035514 74 317 0.0 3.0 0.00 0.04 0.04 92 1013.7
20260505035013 74 324 0.0 0.0 0.00 0.04 0.04 93 1013.6
20260505034611 74 324 0.0 3.0 0.00 0.04 0.04 93 1013.6
20260505034016 74 324 0.0 3.0 0.00 0.04 0.04 92 1013.6
20260505033521 74 319 0.0 3.0 0.00 0.04 0.04 92 1013.7
20260505033056 74 340 0.0 3.0 0.00 0.04 0.04 92 1013.6
20260505032514 74 343 0.0 2.0 0.00 0.04 0.04 92 1013.6
20260505032014 74 307 0.0 3.0 0.00 0.04 0.04 92 1013.8
20260505031548 75 306 1.0 3.0 0.00 0.04 0.04 91 1013.5
20260505031017 75 290 1.0 3.0 0.00 0.04 0.04 91 1013.5
20260505030514 75 304 2.0 3.0 0.00 0.04 0.04 91 1013.4
20260505030055 75 295 0.0 3.0 0.00 0.04 0.04 91 1013.3
20260505025518 75 287 0.0 3.0 0.00 0.04 0.04 91 1013.3
20260505025016 75 287 1.0 3.0 0.00 0.04 0.04 90 1013.2
20260505024552 75 285 0.0 3.0 0.00 0.04 0.04 91 1013.2
20260505024013 75 285 1.0 4.0 0.00 0.04 0.04 90 1013.2
20260505023514 76 328 0.0 4.0 0.00 0.04 0.04 90 1013.2
20260505023055 76 313 0.0 3.0 0.00 0.04 0.04 91 1013.2
20260505022515 75 343 0.0 3.0 0.03 0.04 0.04 92 1013.1
20260505022014 75 318 1.0 3.0 0.03 0.04 0.04 91 1013.1
20260505021551 75 319 1.0 3.0 0.03 0.04 0.04 92 1013.1
20260505021015 75 84 0.0 0.0 0.04 0.04 0.04 94 1013.1
20260505020516 75 84 0.0 0.0 0.04 0.04 0.04 96 1013.1
20260505020053 75 86 0.0 0.0 0.04 0.04 0.04 96 1013.1
20260505015514 75 84 0.0 1.0 0.04 0.04 0.04 96 1013.3
20260505015018 74 84 0.0 1.0 0.04 0.04 0.04 96 1013.4
20260505014548 74 94 0.0 3.0 0.04 0.04 0.04 96 1013.4
20260505014016 74 67 0.0 2.0 0.04 0.04 0.04 96 1013.5
20260505013514 74 65 0.0 3.0 0.04 0.04 0.04 95 1013.5
20260505013055 74 88 0.0 3.0 0.04 0.04 0.04 94 1013.6
20260505012515 74 86 0.0 3.0 0.02 0.02 0.02 94 1013.6
20260505012015 75 74 0.0 3.0 0.02 0.02 0.02 93 1013.7
20260505011611 75 93 1.0 4.0 0.01 0.01 0.01 92 1013.9
20260505011016 76 54 0.0 3.0 0.01 0.01 0.01 91 1013.9
20260505010521 76 72 0.0 2.0 0.00 0.00 0.00 91 1014.1
20260505010059 76 318 0.0 2.0 0.00 0.00 0.00 90 1014.1
20260505005518 76 318 0.0 4.0 0.00 0.00 0.00 89 1014.2
20260505005016 76 317 2.0 4.0 0.00 0.00 0.00 88 1014.1
20260505004604 76 311 2.0 4.0 0.00 0.00 0.00 88 1014.1
20260505004015 76 275 1.0 4.0 0.00 0.00 0.00 88 1014.1
20260505003518 76 279 2.0 5.0 0.00 0.00 0.00 88 1014.1
20260505003055 76 278 1.0 7.0 0.00 0.00 0.00 87 1014.2
20260505002515 77 271 2.0 5.0 0.00 0.00 0.00 86 1014.3
20260505002019 77 294 2.0 7.0 0.00 0.00 0.00 85 1014.3
20260505001606 77 262 3.0 7.0 0.00 0.00 0.00 85 1014.4
20260505001017 78 294 2.0 5.0 0.00 0.00 0.00 85 1014.4
20260505000516 78 237 1.0 8.0 0.00 0.00 0.00 85 1014.5
20260505000110 78 275 3.0 8.0 0.00 0.00 0.00 85 1014.5
20260504235515 78 241 3.0 5.0 0.00 0.00 0.00 84 1014.5
20260504235014 78 305 3.0 5.0 0.00 0.00 0.00 84 1014.4
20260504234557 78 323 3.0 5.0 0.00 0.00 0.00 84 1014.6
20260504234016 78 250 4.0 7.0 0.00 0.00 0.00 84 1014.6
20260504233519 78 252 2.0 8.0 0.00 0.00 0.00 84 1014.6
20260504233113 78 292 3.0 8.0 0.00 0.00 0.00 83 1014.6
20260504232517 79 315 3.0 8.0 0.00 0.00 0.00 84 1014.7
20260504232017 79 322 4.0 8.0 0.00 0.00 0.00 84 1014.7
20260504231559 79 245 4.0 8.0 0.00 0.00 0.00 83 1014.7
20260504231017 79 292 2.0 7.0 0.00 0.00 0.00 84 1014.7
20260504230522 79 315 3.0 6.0 0.00 0.00 0.00 82 1014.7
20260504230109 79 279 2.0 8.0 0.00 0.00 0.00 81 1014.8
20260504225519 80 321 3.0 8.0 0.00 0.00 0.00 82 1014.9
20260504225015 80 283 3.0 8.0 0.00 0.00 0.00 82 1014.8
20260504224558 80 294 4.0 9.0 0.00 0.00 0.00 81 1014.8
20260504224018 80 309 2.0 6.0 0.00 0.00 0.00 83 1014.9
20260504223518 79 297 3.0 7.0 0.00 0.00 0.00 83 1015.0
20260504223058 79 263 3.0 6.0 0.00 0.00 0.00 82 1015.0
20260504222518 79 327 2.0 5.0 0.00 0.00 0.00 83 1015.1
20260504222019 79 340 2.0 6.0 0.00 0.00 0.00 83 1015.2
20260504221552 79 329 4.0 6.0 0.00 0.00 0.00 81 1015.1
20260504221017 79 257 3.0 5.0 0.00 0.00 0.00 83 1015.2
20260504220517 78 309 2.0 5.0 0.00 0.00 0.00 83 1015.2
20260504220058 78 265 2.0 6.0 0.00 0.00 0.00 84 1015.3
20260504215516 78 311 3.0 6.0 0.00 0.00 0.00 84 1015.3
20260504215017 78 317 2.0 4.0 0.00 0.00 0.00 84 1015.3
20260504214600 78 269 2.0 4.0 0.00 0.00 0.00 84 1015.4
20260504214015 78 331 2.0 5.0 0.00 0.00 0.00 83 1015.4
20260504213511 78 330 2.0 5.0 0.00 0.00 0.00 82 1015.4
20260504213033 78 256 1.0 5.0 0.00 0.00 0.00 83 1015.5
20260504212510 79 288 2.0 7.0 0.00 0.00 0.00 82 1015.4
20260504212009 79 9 3.0 7.0 0.00 0.00 0.00 82 1015.5
20260504211531 79 270 3.0 6.0 0.00 0.00 0.00 82 1015.5
20260504211011 78 320 3.0 6.0 0.00 0.00 0.00 82 1015.6
20260504210511 78 337 2.0 5.0 0.00 0.00 0.00 85 1015.6
20260504210031 78 282 2.0 5.0 0.00 0.00 0.00 83 1015.6
20260504205510 78 290 2.0 5.0 0.00 0.00 0.00 84 1015.6
20260504205011 78 309 3.0 6.0 0.00 0.00 0.00 84 1015.6
20260504204529 77 327 2.0 6.0 0.00 0.00 0.00 84 1015.6
20260504204011 77 288 2.0 5.0 0.00 0.00 0.00 84 1015.5
20260504203513 78 314 2.0 5.0 0.00 0.00 0.00 83 1015.6
20260504203033 78 273 2.0 5.0 0.00 0.00 0.00 84 1015.7
20260504202512 78 265 3.0 5.0 0.00 0.00 0.00 84 1015.5
20260504202009 78 335 2.0 5.0 0.00 0.00 0.00 84 1015.5
20260504201532 77 277 1.0 4.0 0.00 0.00 0.00 85 1015.5
20260504201013 78 274 1.0 5.0 0.00 0.00 0.00 84 1015.6
20260504200510 78 259 1.0 4.0 0.00 0.00 0.00 82 1015.6
20260504200032 78 292 2.0 4.0 0.00 0.00 0.00 83 1015.5
20260504195511 78 273 1.0 4.0 0.00 0.00 0.00 83 1015.5
20260504195012 78 266 1.0 6.0 0.00 0.00 0.00 84 1015.5
20260504194532 77 282 2.0 6.0 0.00 0.00 0.00 85 1015.6
20260504194012 77 351 1.0 3.0 0.00 0.00 0.00 83 1015.4
20260504193511 77 294 2.0 3.0 0.00 0.00 0.00 84 1015.5
20260504193031 77 281 1.0 6.0 0.00 0.00 0.00 86 1015.6
20260504192512 77 298 2.0 6.0 0.00 0.00 0.00 84 1015.6
20260504192010 77 300 2.0 4.0 0.00 0.00 0.00 85 1015.5
20260504191529 77 313 3.0 4.0 0.00 0.00 0.00 85 1015.5
20260504191009 77 316 2.0 5.0 0.00 0.00 0.00 86 1015.4
20260504190513 76 308 1.0 5.0 0.00 0.00 0.00 86 1015.6
20260504190034 76 335 2.0 5.0 0.00 0.00 0.00 85 1015.5
20260504185511 76 323 2.0 4.0 0.00 0.00 0.00 86 1015.5
20260504185011 76 291 1.0 4.0 0.00 0.00 0.00 84 1015.7
20260504184530 76 311 1.0 3.0 0.00 0.00 0.00 84 1015.6
20260504184014 75 309 1.0 3.0 0.00 0.00 0.00 85 1015.5
20260504183513 75 307 1.0 3.0 0.00 0.00 0.00 85 1015.3
20260504183037 75 313 1.0 3.0 0.00 0.00 0.00 86 1015.3
20260504182513 75 313 1.0 3.0 0.00 0.00 0.00 87 1015.3
20260504182013 75 313 0.0 3.0 0.00 0.00 0.00 87 1015.3
20260504181529 74 313 1.0 3.0 0.00 0.00 0.00 87 1015.3
20260504181014 74 312 1.0 2.0 0.00 0.00 0.00 88 1015.1
20260504180510 73 52 0.0 2.0 0.00 0.00 0.00 88 1015.2
20260504180031 72 53 0.0 2.0 0.00 0.00 0.00 89 1015.1
20260504175517 72 88 0.0 1.0 0.00 0.00 0.00 91 1015.1
20260504175017 71 94 0.0 1.0 0.00 0.00 0.00 91 1015.1
20260504174530 71 94 0.0 1.0 0.00 0.00 0.00 92 1015.1
20260504174010 71 92 0.0 1.0 0.00 0.00 0.00 92 1015.0
20260504173511 70 93 0.0 1.0 0.00 0.00 0.00 92 1015.0
20260504173032 70 93 0.0 2.0 0.00 0.00 0.00 91 1014.9
20260504172509 70 92 0.0 2.0 0.00 0.00 0.00 91 1014.9
20260504172014 70 101 0.0 1.0 0.00 0.00 0.00 91 1014.9
20260504171544 69 101 0.0 2.0 0.00 0.00 0.00 90 1014.9
20260504171010 69 86 0.0 2.0 0.00 0.00 0.00 90 1015.0
20260504170518 69 96 0.0 3.0 0.00 0.00 0.00 89 1015.0
20260504151013 69 105 2.0 4.0 0.00 0.00 0.00 91 1013.8
20260504150512 69 90 2.0 6.0 0.00 0.00 0.00 92 1013.6
20260504141010 70 126 1.0 4.0 0.00 0.00 0.00 92 1013.4
20260504140513 71 105 0.0 3.0 0.00 0.00 0.00 91 1013.4
20260504130511 70 113 1.0 6.0 0.00 0.00 0.00 85 1013.3
20260504110513 72 95 1.0 6.0 0.00 0.00 0.00 87 1014.1
20260504100514 73 105 0.0 1.0 0.00 0.00 0.00 87 1014.8